Hourly Weather Bolshoy Gorodok

Today, 30 July, Friday

Time Temperature Precipitation Wind Pressure Humidity
00:00 +17°C° 0 mm 2 mps 739 mmHg 93%
01:00 +17°C° 0 mm 2 mps 739 mmHg 95%
02:00 +17°C° 0 mm 2 mps 739 mmHg 97%
03:00 +17°C° 0 mm 2 mps 739 mmHg 95%
04:00 +18°C° 0 mm 1 mps 738 mmHg 94%
05:00 +19°C° 0 mm 1 mps 738 mmHg 93%
06:00 +20°C° 0.3 mm 1 mps 738 mmHg 90%
07:00 +21°C° 0.3 mm 1 mps 738 mmHg 87%
08:00 +21°C° 0.3 mm 2 mps 738 mmHg 85%
09:00 +21°C° 0.8 mm 2 mps 738 mmHg 85%
10:00 +21°C° 0.8 mm 2 mps 738 mmHg 86%
11:00 +21°C° 0.8 mm 2 mps 738 mmHg 87%
12:00 +21°C° 0.3 mm 2 mps 738 mmHg 82%
13:00 +23°C° 0.3 mm 2 mps 738 mmHg 77%
14:00 +23°C° 0.3 mm 2 mps 738 mmHg 72%
15:00 +23°C° 0.2 mm 2 mps 738 mmHg 70%
16:00 +23°C° 0.2 mm 2 mps 738 mmHg 68%
17:00 +23°C° 0.2 mm 2 mps 737 mmHg 65%
18:00 +21°C° 0.1 mm 2 mps 737 mmHg 71%
19:00 +19°C° 0.1 mm 2 mps 737 mmHg 76%
20:00 +18°C° 0.1 mm 1 mps 737 mmHg 82%
21:00 +18°C° 0 mm 1 mps 737 mmHg 83%
22:00 +17°C° 0 mm 2 mps 737 mmHg 85%
23:00 +16°C° 0 mm 2 mps 737 mmHg 86%

Tomorrow, 31 July, Saturday

Time Temperature Precipitation Wind Pressure Humidity
00:00 +16°C° 0 mm 2 mps 737 mmHg 85%
01:00 +16°C° 0 mm 2 mps 737 mmHg 84%
02:00 +14°C° 0 mm 3 mps 736 mmHg 83%
03:00 +14°C° 0 mm 3 mps 736 mmHg 82%
04:00 +14°C° 0 mm 3 mps 736 mmHg 80%
05:00 +14°C° 0 mm 4 mps 736 mmHg 78%
06:00 +15°C° 0 mm 4 mps 736 mmHg 74%
07:00 +17°C° 0 mm 4 mps 736 mmHg 70%
08:00 +17°C° 0 mm 5 mps 736 mmHg 66%
09:00 +20°C° 0 mm 5 mps 736 mmHg 57%
10:00 +22°C° 0 mm 6 mps 736 mmHg 49%
11:00 +24°C° 0 mm 6 mps 736 mmHg 41%
12:00 +23°C° 0 mm 6 mps 736 mmHg 43%
13:00 +23°C° 0 mm 6 mps 737 mmHg 45%
14:00 +23°C° 0 mm 5 mps 737 mmHg 48%
15:00 +23°C° 0 mm 5 mps 737 mmHg 48%
16:00 +25°C° 0 mm 5 mps 737 mmHg 49%
17:00 +25°C° 0 mm 4 mps 738 mmHg 49%
18:00 +22°C° 0 mm 4 mps 738 mmHg 59%
19:00 +21°C° 0 mm 4 mps 738 mmHg 69%
20:00 +19°C° 0 mm 3 mps 739 mmHg 79%
21:00 +18°C° 0 mm 3 mps 739 mmHg 84%
22:00 +17°C° 0 mm 3 mps 740 mmHg 90%
23:00 +16°C° 0 mm 3 mps 740 mmHg 96%

Day after tomorrow, 1 August, Sunday

Time Temperature Precipitation Wind Pressure Humidity
00:00 +16°C° 0 mm 2 mps 740 mmHg 96%
01:00 +16°C° 0 mm 2 mps 740 mmHg 97%
02:00 +16°C° 0 mm 2 mps 740 mmHg 97%
03:00 +16°C° 0 mm 2 mps 741 mmHg 96%
04:00 +16°C° 0 mm 2 mps 741 mmHg 94%
05:00 +16°C° 0 mm 2 mps 741 mmHg 93%
06:00 +18°C° 0 mm 2 mps 741 mmHg 83%
07:00 +20°C° 0 mm 3 mps 741 mmHg 74%
08:00 +22°C° 0 mm 3 mps 741 mmHg 65%
09:00 +22°C° 0 mm 4 mps 741 mmHg 62%
10:00 +22°C° 0 mm 4 mps 741 mmHg 60%
11:00 +22°C° 0 mm 4 mps 741 mmHg 58%
12:00 +22°C° 0 mm 4 mps 740 mmHg 63%
13:00 +21°C° 0 mm 4 mps 740 mmHg 68%
14:00 +20°C° 0 mm 4 mps 740 mmHg 73%
15:00 +21°C° 0 mm 3 mps 740 mmHg 73%
16:00 +21°C° 0 mm 3 mps 740 mmHg 72%
17:00 +22°C° 0 mm 3 mps 740 mmHg 72%
18:00 +21°C° 0 mm 3 mps 740 mmHg 78%
19:00 +20°C° 0 mm 3 mps 740 mmHg 85%
20:00 +18°C° 0 mm 2 mps 740 mmHg 91%
21:00 +18°C° 0 mm 2 mps 740 mmHg 93%
22:00 +17°C° 0 mm 2 mps 740 mmHg 95%
23:00 +17°C° 0 mm 2 mps 740 mmHg 97%

2 August, Monday

Time Temperature Precipitation Wind Pressure Humidity
00:00 +17°C° 0 mm 2 mps 740 mmHg 96%
01:00 +16°C° 0 mm 1 mps 740 mmHg 94%
02:00 +16°C° 0 mm 1 mps 741 mmHg 93%
03:00 +16°C° 0 mm 1 mps 740 mmHg 92%
04:00 +16°C° 0 mm 1 mps 740 mmHg 90%
05:00 +16°C° 0 mm 1 mps 740 mmHg 88%
06:00 +19°C° 0 mm 1 mps 740 mmHg 78%
07:00 +20°C° 0 mm 2 mps 740 mmHg 68%
08:00 +23°C° 0 mm 2 mps 740 mmHg 59%
09:00 +24°C° 0 mm 2 mps 740 mmHg 55%
10:00 +25°C° 0 mm 2 mps 739 mmHg 52%
11:00 +26°C° 0 mm 2 mps 739 mmHg 49%
12:00 +24°C° 0.1 mm 2 mps 739 mmHg 58%
13:00 +23°C° 0.1 mm 1 mps 738 mmHg 67%
14:00 +22°C° 0.1 mm 1 mps 738 mmHg 77%
15:00 +21°C° 0.7 mm 1 mps 737 mmHg 83%
16:00 +20°C° 0.7 mm 1 mps 737 mmHg 90%
17:00 +19°C° 0.7 mm 1 mps 736 mmHg 96%
18:00 +19°C° 0.4 mm 1 mps 735 mmHg 97%
19:00 +19°C° 0.4 mm 1 mps 735 mmHg 97%
20:00 +19°C° 0.4 mm 1 mps 735 mmHg 98%
21:00 +18°C° 0.3 mm 2 mps 734 mmHg 98%
22:00 +17°C° 0.3 mm 3 mps 734 mmHg 98%
23:00 +17°C° 0.3 mm 4 mps 734 mmHg 98%

3 August, Tuesday

Time Temperature Precipitation Wind Pressure Humidity
00:00 +17°C° 0.2 mm 4 mps 735 mmHg 97%
01:00 +15°C° 0.2 mm 4 mps 736 mmHg 96%
02:00 +15°C° 0.2 mm 4 mps 736 mmHg 95%
03:00 +14°C° 0 mm 4 mps 737 mmHg 95%
04:00 +14°C° 0 mm 4 mps 737 mmHg 96%
05:00 +14°C° 0 mm 3 mps 738 mmHg 96%
06:00 +16°C° 0 mm 3 mps 738 mmHg 90%
07:00 +17°C° 0 mm 4 mps 738 mmHg 85%
08:00 +18°C° 0 mm 4 mps 739 mmHg 80%
09:00 +19°C° 0.1 mm 4 mps 739 mmHg 69%
10:00 +21°C° 0.1 mm 4 mps 739 mmHg 58%
11:00 +22°C° 0.1 mm 5 mps 740 mmHg 46%
12:00 +22°C° 0 mm 5 mps 740 mmHg 48%
13:00 +22°C° 0 mm 4 mps 740 mmHg 50%
14:00 +21°C° 0 mm 4 mps 741 mmHg 52%
15:00 +21°C° 0 mm 4 mps 741 mmHg 53%
16:00 +21°C° 0 mm 4 mps 742 mmHg 54%
17:00 +21°C° 0 mm 4 mps 742 mmHg 56%
18:00 +19°C° 0 mm 3 mps 742 mmHg 64%
19:00 +17°C° 0 mm 3 mps 743 mmHg 73%
20:00 +15°C° 0 mm 2 mps 743 mmHg 81%
21:00 +14°C° 0 mm 2 mps 744 mmHg 86%
22:00 +14°C° 0 mm 2 mps 744 mmHg 92%
23:00 +13°C° 0 mm 2 mps 744 mmHg 97%

4 August, Wednesday

Time Temperature Precipitation Wind Pressure Humidity
00:00 +12°C° 0 mm 1 mps 745 mmHg 97%
01:00 +12°C° 0 mm 1 mps 745 mmHg 97%
02:00 +12°C° 0 mm 1 mps 746 mmHg 97%
03:00 +12°C° 0 mm 1 mps 746 mmHg 96%
04:00 +12°C° 0 mm 1 mps 746 mmHg 95%
05:00 +12°C° 0 mm 1 mps 747 mmHg 94%
06:00 +13°C° 0 mm 0 mps 747 mmHg 83%
07:00 +15°C° 0 mm 0 mps 747 mmHg 73%
08:00 +18°C° 0 mm 0 mps 748 mmHg 62%
09:00 +19°C° 0 mm 0 mps 748 mmHg 54%
10:00 +22°C° 0 mm 1 mps 748 mmHg 46%
11:00 +24°C° 0 mm 1 mps 748 mmHg 38%
12:00 +24°C° 0 mm 1 mps 748 mmHg 36%
13:00 +24°C° 0 mm 1 mps 748 mmHg 34%
14:00 +25°C° 0 mm 2 mps 748 mmHg 32%
15:00 +24°C° 0 mm 2 mps 748 mmHg 34%
16:00 +24°C° 0 mm 2 mps 748 mmHg 36%
17:00 +23°C° 0 mm 2 mps 748 mmHg 39%
18:00 +21°C° 0 mm 1 mps 748 mmHg 46%
19:00 +19°C° 0 mm 1 mps 748 mmHg 53%
20:00 +15°C° 0 mm 0 mps 748 mmHg 61%
21:00 +14°C° 0 mm 0 mps 748 mmHg 62%
22:00 +15°C° 0 mm 1 mps 748 mmHg 62%
23:00 +15°C° 0 mm 1 mps 748 mmHg 63%
Show more

We Need Your Consent

Meteoprog and our Service Providers may store and access personal data such as cookies, device identifiers or other similar technologies on your device and process such data to personalise content and ads, as well as provide social media features and to analyse the traffic.

  • Store and/or access information on your device

    Cookies, device identifiers or other information can be stored or accessed on your device for the purposes indicated above.

  • Personalised ads and content, ad and content measurement, audience insights, and products development

    Ads and content can be personalised based on a profile. More data can be added to better personalise ads and content. Ad and content performance can be measured. Insights about the audience who saw the ads and content can be derived. Such data can be used to develop or improve user’s experience, systems and software.

By clicking ‘I Agree’ you will allow the use of indicated cookies, device identifiers, web beacons or other similar technologies. Your settings can be changed in the browser on your device.

For certain purposes, legitimate interests may be relied on, rather than consent. You can read more about this in our Privacy and Cookie Policy.